QPF
0.00 0.01 0.02 0.03 0.03 0.03 0.02 0.00 0.00 0.01 0.01 0.00 0.00 0.01 0.01 0.00 0.00 0.00 0.00 0.00 0.00 0.00 0.00 0.00 0.00 0.00 0.00
0.00 0.00 0.00 0.01 0.04 0.05 0.04 0.04 0.01 0.01 0.03 0.02 0.01 0.01 0.00 0.00 0.00 0.00 0.00 0.00 0.00 0.00 0.00 0.00 0.00 0.00 0.00
0.00 0.00 0.00 0.00 0.01 0.03 0.05 0.06 0.06 0.03 0.03 0.03 0.02 0.01 0.01 0.01 0.00 0.00 0.00 0.00 0.00 0.00 0.00 0.00 0.00 0.00 0.00
0.00 0.00 0.00 0.00 0.00 0.01 0.03 0.03 0.03 0.03 0.02 0.02 0.01 0.01 0.01 0.01 0.01 0.00 0.00 0.00 0.00 0.00 0.00 0.00 0.00 0.00 0.00
0.00 0.00 0.00 0.00 0.01 0.01 0.01 0.01 0.02 0.01 0.01 0.01 0.01 0.01 0.01 0.02 0.02 0.01 0.00 0.00 0.00 0.00 0.00 0.00 0.00 0.00 0.00
0.00 0.00 0.00 0.00 0.00 0.01 0.02 0.02 0.01 0.01 0.01 0.00 0.00 0.00 0.00 0.00 0.00 0.00 0.00 0.00 0.00 0.00 0.00 0.00 0.00 0.00 0.00
0.00 0.00 0.00 0.00 0.00 0.00 0.01 0.01 0.01 0.01 0.01 0.00 0.00 0.00 0.00 0.00 0.00 0.00 0.00 0.00 0.00 0.00 0.00 0.00 0.00 0.00 0.00
0.00 0.00 0.00 0.00 0.00 0.00 0.00 0.00 0.01 0.01 0.01 0.01 0.00 0.00 0.00 0.00 0.00 0.00 0.00 0.00 0.00 0.00 0.00 0.00 0.00 0.00 0.00
0.00 0.00 0.00 0.00 0.00 0.00 0.00 0.00 0.00 0.01 0.01 0.01 0.01 0.00 0.00 0.00 0.00 0.00 0.00 0.00 0.00 0.00 0.00 0.01 0.01 0.02 0.03
0.00 0.00 0.00 0.00 0.00 0.00 0.00 0.00 0.00 0.00 0.01 0.01 0.00 0.00 0.00 0.00 0.00 0.00 0.00 0.00 0.00 0.00 0.00 0.00 0.02 0.03 0.03
0.00 0.00 0.00 0.00 0.00 0.00 0.00 0.00 0.00 0.00 0.00 0.01 0.01 0.00 0.00 0.00 0.00 0.00 0.00 0.00 0.00 0.00 0.00 0.00 0.00 0.00 0.01
0.01 0.01 0.00 0.00 0.00 0.00 0.00 0.00 0.00 0.00 0.00 0.00 0.01 0.00 0.00 0.00 0.00 0.00 0.00 0.00 0.00 0.00 0.00 0.00 0.00 0.00 0.00
0.00 0.00 0.00 0.00 0.00 0.00 0.00 0.00 0.00 0.00 0.00 0.00 0.00 0.01 0.01 0.00 0.00 0.00 0.00 0.00 0.00 0.00 0.00 0.00 0.00 0.00 0.00
0.00 0.00 0.00 0.00 0.00 0.00 0.00 0.00 0.00 0.00 0.00 0.00 0.00 0.00 0.00 0.00 0.00 0.00 0.00 0.00 0.00 0.00 0.00 0.00 0.00 0.00 0.00
0.00 0.00 0.00 0.00 0.00 0.00 0.00 0.00 0.00 0.00 0.00 0.00 0.00 0.00 0.00 0.00 0.00 0.00 0.00 0.00 0.00 0.00 0.00 0.00 0.00 0.00 0.00
0.00 0.00 0.00 0.00 0.00 0.00 0.00 0.00 0.00 0.00 0.00 0.00 0.00 0.00 0.00 0.00 0.00 0.00 0.00 0.00 0.00 0.00 0.00 0.00 0.00 0.00 0.00
0.00 0.00 0.00 0.00 0.00 0.00 0.00 0.00 0.00 0.00 0.00 0.00 0.00 0.00 0.00 0.00 0.00 0.00 0.00 0.00 0.00 0.00 0.00 0.00 0.00 0.00 0.00
MSLP
1015.38 1013.88 1013.06 1012.30 1011.13 1009.65 1009.40 1009.67 1010.01 1010.56 1010.73 1011.31 1011.77 1012.51 1013.26 1014.02 1014.83 1015.50 1016.25 1016.89 1017.57 1018.18 1018.71 1019.32 1019.79 1020.39 1020.99
1015.61 1014.43 1013.53 1012.27 1011.29 1010.01 1008.45 1008.46 1008.61 1009.34 1009.56 1009.93 1010.50 1011.18 1011.95 1012.75 1013.45 1014.26 1014.97 1015.65 1016.36 1017.05 1017.60 1018.20 1018.73 1019.25 1019.85
1015.06 1014.63 1013.22 1012.23 1011.22 1009.87 1008.12 1007.57 1007.59 1007.83 1008.34 1008.70 1009.16 1009.77 1010.61 1011.32 1012.10 1012.87 1013.66 1014.34 1015.10 1015.79 1016.52 1017.07 1017.59 1018.17 1018.77
1015.63 1014.09 1013.49 1012.12 1011.18 1010.01 1008.85 1006.87 1006.89 1006.72 1007.22 1007.75 1008.18 1008.90 1009.31 1009.87 1010.71 1011.51 1012.21 1013.01 1013.60 1014.49 1015.13 1015.89 1016.52 1017.04 1017.58
1015.18 1014.26 1012.79 1012.08 1010.93 1009.90 1008.74 1007.33 1005.86 1005.45 1005.89 1006.38 1007.10 1007.88 1008.21 1008.78 1009.45 1010.21 1010.77 1011.39 1012.14 1012.93 1013.74 1014.49 1015.27 1015.86 1016.33
1014.05 1013.50 1012.29 1012.20 1011.59 1010.67 1009.16 1008.02 1005.96 1004.35 1004.85 1004.89 1005.59 1006.03 1006.61 1007.22 1007.79 1008.77 1009.78 1010.15 1010.78 1011.64 1012.43 1013.17 1013.94 1014.53 1015.11
1012.69 1012.35 1011.88 1011.36 1011.39 1010.47 1009.69 1009.31 1007.87 1006.04 1004.76 1003.73 1003.90 1004.36 1004.92 1005.40 1006.36 1007.26 1008.01 1008.77 1009.52 1010.14 1010.85 1011.59 1012.47 1013.31 1013.62
1011.54 1010.97 1010.92 1010.75 1010.53 1009.99 1009.48 1008.57 1007.54 1006.27 1006.02 1004.36 1001.71 1002.73 1003.51 1004.06 1004.69 1005.56 1006.38 1007.15 1007.81 1008.61 1009.26 1009.99 1010.80 1011.50 1012.25
1009.91 1009.45 1009.56 1009.50 1009.50 1009.54 1008.52 1008.46 1006.17 1004.79 1004.80 1005.32 1000.64 1001.28 1002.10 1002.60 1003.21 1003.99 1004.72 1005.60 1006.33 1007.00 1007.76 1008.42 1009.17 1010.05 1010.87
1008.35 1007.84 1007.82 1007.81 1007.82 1007.87 1007.94 1007.16 1006.26 1004.74 1002.73 1004.24 1002.52 999.86 1000.85 1000.75 1001.73 1002.64 1003.34 1004.06 1004.78 1005.57 1006.28 1007.01 1007.78 1008.78 1009.51
1006.77 1006.38 1006.23 1006.18 1005.97 1005.95 1006.00 1005.84 1005.29 1003.74 1001.74 1002.72 1000.76 998.96 999.16 999.85 1000.42 1001.21 1001.87 1002.59 1003.46 1004.15 1004.81 1005.41 1006.22 1006.97 1007.74
1005.08 1004.51 1004.34 1004.28 1004.14 1004.10 1004.24 1004.04 1003.63 1002.05 1001.19 1001.96 1001.60 1001.04 998.58 999.53 999.68 999.98 1000.51 1001.02 1001.64 1002.40 1003.33 1003.94 1004.81 1005.38 1005.97
1003.44 1002.75 1002.55 1002.35 1002.52 1002.65 1002.57 1002.43 1002.16 1001.17 1000.78 1000.49 1000.85 1000.02 999.35 997.05 997.95 998.92 999.70 1000.13 1000.55 1001.27 1001.98 1002.57 1003.25 1004.17 1005.06
1001.69 1000.95 1000.90 1000.91 1000.83 1000.99 1000.88 1000.94 1000.68 999.60 999.31 998.96 998.76 998.71 998.52 997.59 996.78 997.58 998.14 999.41 999.40 999.93 1000.65 1001.26 1001.89 1002.63 1003.30
1000.34 999.55 999.15 999.06 998.88 999.28 999.14 999.18 998.78 998.06 997.61 997.28 996.62 996.73 996.79 997.03 995.95 996.24 997.25 997.80 998.16 998.71 999.63 1000.56 1001.08 1001.44 1002.01
998.69 998.05 997.43 997.10 996.99 997.20 997.33 997.18 996.84 996.34 996.03 996.07 995.50 995.84 995.46 995.31 995.70 995.14 996.21 996.71 997.57 997.90 998.91 1000.04 1000.61 1001.00 1001.17
996.66 995.95 995.44 995.11 995.18 995.03 995.09 995.18 994.86 994.58 994.43 994.51 994.19 993.55 994.10 994.03 994.51 994.34 994.30 995.44 996.68 997.59 998.26 999.07 999.73 1000.08 1000.43
Thickness
5499 5519 5536 5551 5565 5582 5591 5595 5597 5597 5601 5606 5609 5607 5607 5606 5603 5602 5601 5599 5597 5596 5595 5592 5591 5588 5584
5471 5491 5510 5529 5546 5562 5582 5589 5592 5591 5595 5600 5604 5605 5604 5603 5602 5599 5599 5598 5596 5594 5593 5590 5589 5587 5584
5448 5463 5489 5507 5525 5545 5568 5581 5583 5588 5590 5594 5598 5601 5600 5600 5600 5599 5597 5598 5596 5592 5590 5588 5587 5586 5582
5406 5438 5458 5485 5502 5525 5541 5568 5575 5580 5584 5585 5586 5590 5594 5597 5596 5595 5596 5595 5595 5592 5590 5587 5585 5584 5581
5376 5403 5437 5458 5479 5502 5520 5544 5565 5577 5579 5578 5580 5579 5585 5590 5591 5591 5595 5595 5594 5593 5589 5586 5583 5581 5580
5352 5374 5410 5428 5444 5465 5490 5511 5545 5571 5570 5577 5575 5576 5580 5583 5588 5587 5589 5592 5592 5590 5588 5585 5581 5580 5578
5326 5351 5378 5405 5420 5437 5457 5473 5502 5529 5548 5567 5571 5574 5578 5581 5582 5583 5585 5586 5586 5588 5587 5584 5579 5575 5577
5304 5336 5351 5373 5391 5413 5431 5453 5480 5503 5516 5541 5576 5573 5573 5575 5577 5577 5578 5582 5584 5584 5585 5582 5581 5577 5575
5285 5311 5329 5348 5367 5383 5408 5426 5468 5497 5505 5507 5566 5568 5568 5571 5572 5573 5576 5577 5579 5580 5580 5581 5580 5576 5571
5266 5290 5309 5326 5348 5365 5387 5410 5444 5470 5509 5501 5525 5563 5552 5573 5570 5570 5571 5572 5574 5574 5576 5577 5575 5569 5567
5252 5271 5290 5308 5332 5353 5374 5395 5419 5453 5500 5494 5522 5550 5552 5560 5568 5567 5569 5570 5569 5570 5571 5572 5570 5569 5568
5238 5257 5277 5297 5321 5342 5360 5381 5404 5447 5475 5472 5489 5509 5545 5530 5547 5557 5564 5567 5569 5569 5568 5568 5566 5567 5566
5230 5250 5268 5291 5306 5318 5337 5362 5385 5421 5443 5461 5476 5495 5511 5550 5548 5548 5551 5556 5562 5564 5562 5564 5564 5563 5560
5221 5241 5254 5267 5282 5302 5322 5344 5365 5403 5427 5449 5469 5484 5494 5517 5540 5540 5548 5548 5557 5559 5558 5557 5557 5558 5560
5208 5226 5241 5253 5269 5288 5308 5328 5348 5387 5414 5440 5462 5476 5490 5499 5521 5537 5538 5543 5551 5554 5550 5548 5549 5553 5555
5203 5216 5231 5246 5262 5277 5294 5312 5337 5369 5398 5424 5448 5456 5469 5491 5506 5526 5529 5537 5538 5546 5540 5538 5539 5541 5548
5197 5209 5221 5234 5246 5263 5282 5302 5328 5357 5382 5408 5428 5451 5464 5483 5501 5511 5532 5532 5530 5530 5532 5530 5534 5537 5538